GW6248 Weather Reports


Display with metric or nautical units.
time (UTC)temp
F
wind
direction
speed
MPH
gust
MPH
rain 1hr
in
rain 24hr
in
rain mn
in
humidity
%
barometer
mb
20260507212503 46 337 0.0 1.0 0.00 0.00 0.00 89 1014.5
20260507212004 46 306 0.0 2.0 0.00 0.00 0.00 88 1014.4
20260507211503 46 310 0.0 2.0 0.00 0.00 0.00 88 1014.4
20260507211004 47 322 0.0 2.0 0.00 0.00 0.00 89 1014.5
20260507210503 47 325 0.0 1.0 0.00 0.00 0.00 88 1014.3
20260507210004 47 323 1.0 2.0 0.00 0.00 0.00 88 1014.5
20260507205504 47 326 1.0 2.0 0.00 0.00 0.00 87 1014.3
20260507205003 47 332 1.0 2.0 0.00 0.00 0.00 87 1014.3
20260507204503 48 321 0.0 2.0 0.00 0.00 0.00 86 1014.2
20260507204003 48 307 0.0 2.0 0.00 0.00 0.00 85 1014.1
20260507203503 48 322 0.0 2.0 0.00 0.00 0.00 85 1014.1
20260507203217 48 332 0.0 2.0 0.00 0.00 0.00 85 1014.0
20260507202718 49 342 0.0 2.0 0.00 0.00 0.00 84 1014.0
20260507202003 49 324 0.0 2.0 0.00 0.00 0.00 83 1014.1
20260507201503 50 314 0.0 2.0 0.00 0.00 0.00 83 1013.9
20260507201217 50 305 0.0 2.0 0.00 0.00 0.00 82 1013.8
20260507200504 50 340 0.0 1.0 0.00 0.00 0.00 82 1013.9
20260507200004 50 312 0.0 1.0 0.00 0.00 0.00 81 1013.7
20260507195504 51 328 0.0 1.0 0.00 0.00 0.00 81 1013.9
20260507195217 51 332 0.0 1.0 0.00 0.00 0.00 81 1013.9
20260507194503 51 343 0.0 2.0 0.00 0.00 0.00 80 1013.8
20260507194004 51 350 0.0 2.0 0.00 0.00 0.00 80 1013.6
20260507193503 51 353 0.0 1.0 0.00 0.00 0.00 80 1013.5
20260507193004 51 324 0.0 1.0 0.00 0.00 0.00 80 1013.6
20260507192503 51 324 0.0 1.0 0.00 0.00 0.00 79 1013.4
20260507192003 51 345 0.0 1.0 0.00 0.00 0.00 79 1013.7
20260507191718 51 356 0.0 1.0 0.00 0.00 0.00 79 1013.7
20260507191003 51 9 0.0 1.0 0.00 0.00 0.00 79 1013.4
20260507190718 51 359 0.0 1.0 0.00 0.00 0.00 78 1013.6
20260507190004 52 360 0.0 1.0 0.00 0.00 0.00 78 1013.6
20260507185503 52 5 0.0 2.0 0.00 0.00 0.00 78 1013.6
20260507185003 51 9 0.0 2.0 0.00 0.00 0.00 78 1013.4
20260507184503 52 17 0.0 1.0 0.00 0.00 0.00 78 1013.5
20260507184003 52 24 0.0 1.0 0.00 0.00 0.00 77 1013.4
20260507183503 52 18 0.0 2.0 0.00 0.00 0.00 77 1013.3
20260507183004 53 15 0.0 2.0 0.00 0.00 0.00 77 1013.5
20260507182503 53 3 0.0 2.0 0.00 0.00 0.00 76 1013.4
20260507182003 54 16 1.0 3.0 0.00 0.00 0.00 75 1013.4
20260507181503 54 26 1.0 3.0 0.00 0.00 0.00 70 1013.3
20260507181003 53 19 1.0 4.0 0.00 0.00 0.00 72 1013.4
20260507180717 53 8 1.0 4.0 0.00 0.00 0.00 74 1013.4
20260507180003 53 360 1.0 2.0 0.00 0.00 0.00 77 1013.3
20260507175503 52 4 0.0 2.0 0.00 0.00 0.00 77 1013.4
20260507175003 53 4 0.0 2.0 0.00 0.00 0.00 77 1013.3
20260507174503 53 5 0.0 1.0 0.00 0.00 0.00 77 1013.5
20260507174003 53 357 0.0 1.0 0.00 0.00 0.00 76 1013.4
20260507173503 53 337 0.0 2.0 0.00 0.00 0.00 73 1013.2
20260507173004 54 333 1.0 3.0 0.00 0.00 0.00 72 1013.3
20260507172504 54 120 1.0 3.0 0.00 0.00 0.00 70 1013.3
20260507172003 54 97 1.0 3.0 0.00 0.00 0.00 71 1013.3
20260507171503 54 66 1.0 4.0 0.00 0.00 0.00 72 1013.3
20260507171003 54 65 2.0 4.0 0.00 0.00 0.00 72 1013.4
20260507170503 54 58 2.0 5.0 0.00 0.00 0.00 73 1013.3
20260507170218 54 64 2.0 5.0 0.00 0.00 0.00 72 1013.6
20260507165504 54 76 2.0 5.0 0.00 0.00 0.00 73 1013.3
20260507165003 54 88 2.0 4.0 0.00 0.00 0.00 74 1013.4
20260507164503 54 83 2.0 5.0 0.00 0.00 0.00 73 1013.3
20260507164003 54 90 2.0 5.0 0.00 0.00 0.00 77 1013.3
20260507163503 54 96 3.0 6.0 0.00 0.00 0.00 77 1013.4
20260507163003 54 90 3.0 6.0 0.00 0.00 0.00 76 1013.3
20260507162503 54 73 3.0 6.0 0.00 0.00 0.00 72 1013.2
20260507162003 54 75 2.0 6.0 0.00 0.00 0.00 73 1013.5
20260507161503 55 111 2.0 5.0 0.00 0.00 0.00 74 1013.5
20260507161003 54 118 2.0 5.0 0.00 0.00 0.00 74 1013.3
20260507160503 55 99 2.0 5.0 0.00 0.00 0.00 73 1013.3
20260507160217 55 94 2.0 5.0 0.00 0.00 0.00 74 1013.2
20260507155504 55 141 3.0 8.0 0.00 0.00 0.00 74 1013.4
20260507155003 55 163 3.0 8.0 0.00 0.00 0.00 75 1013.4
20260507154718 55 128 3.0 6.0 0.00 0.00 0.00 74 1013.3
20260507154004 55 100 2.0 7.0 0.00 0.00 0.00 73 1013.5
20260507153504 55 144 2.0 7.0 0.00 0.00 0.00 73 1013.4
20260507153217 55 142 2.0 7.0 0.00 0.00 0.00 73 1013.5
20260507152504 54 116 2.0 5.0 0.00 0.00 0.00 73 1013.5
20260507152003 54 110 2.0 5.0 0.00 0.00 0.00 74 1013.6
20260507151503 55 115 2.0 6.0 0.00 0.00 0.00 75 1013.3
20260507151217 55 111 2.0 6.0 0.00 0.00 0.00 75 1013.5
20260507150503 54 120 1.0 5.0 0.00 0.00 0.00 75 1013.4
20260507150003 54 91 2.0 5.0 0.00 0.00 0.00 75 1013.4
20260507145503 54 87 2.0 5.0 0.00 0.00 0.00 76 1013.4
20260507145003 54 97 2.0 7.0 0.00 0.00 0.00 75 1013.5
20260507144503 54 79 2.0 7.0 0.00 0.00 0.00 76 1013.3
20260507144004 54 58 2.0 6.0 0.00 0.00 0.00 76 1013.6
20260507143503 54 17 2.0 4.0 0.00 0.00 0.00 77 1013.5
20260507143217 54 348 1.0 4.0 0.00 0.00 0.00 77 1013.7
20260507142503 54 351 1.0 4.0 0.00 0.00 0.00 78 1013.5
20260507142003 54 315 1.0 4.0 0.00 0.00 0.00 76 1013.5
20260507141503 55 252 0.0 2.0 0.00 0.00 0.00 76 1013.5
20260507141004 55 242 1.0 3.0 0.00 0.00 0.00 74 1013.6
20260507140503 55 59 1.0 4.0 0.00 0.00 0.00 71 1013.5
20260507140217 55 82 2.0 4.0 0.00 0.00 0.00 70 1013.6
20260507135718 56 165 2.0 5.0 0.00 0.00 0.00 69 1013.5
20260507135003 56 170 2.0 5.0 0.00 0.00 0.00 66 1013.4
20260507134503 56 142 2.0 4.0 0.00 0.00 0.00 67 1013.5
20260507134004 56 84 2.0 4.0 0.00 0.00 0.00 69 1013.4
20260507133503 56 80 2.0 5.0 0.00 0.00 0.00 69 1013.6
20260507133003 56 90 2.0 5.0 0.00 0.00 0.00 68 1013.5
20260507132504 56 95 2.0 5.0 0.00 0.00 0.00 67 1013.6
20260507132003 56 118 2.0 5.0 0.00 0.00 0.00 68 1013.7
20260507131503 55 192 1.0 4.0 0.00 0.00 0.00 68 1013.4
20260507131003 55 261 2.0 5.0 0.00 0.00 0.00 68 1013.4
20260507130503 55 264 2.0 6.0 0.00 0.00 0.00 68 1013.6
20260507130003 55 71 3.0 6.0 0.00 0.00 0.00 68 1013.4
20260507125503 56 89 2.0 6.0 0.00 0.00 0.00 66 1013.3
20260507125004 56 140 2.0 4.0 0.00 0.00 0.00 66 1013.4
20260507124717 57 158 2.0 4.0 0.00 0.00 0.00 66 1013.6
20260507124003 56 83 1.0 4.0 0.00 0.00 0.00 65 1013.4
20260507123717 56 42 1.0 2.0 0.00 0.00 0.00 68 1013.2
20260507123003 55 32 1.0 4.0 0.00 0.00 0.00 67 1013.2
20260507122503 56 45 1.0 4.0 0.00 0.00 0.00 67 1013.2
20260507122004 56 65 1.0 4.0 0.00 0.00 0.00 66 1013.3
20260507121503 56 90 1.0 4.0 0.00 0.00 0.00 67 1013.2
20260507121003 56 135 1.0 3.0 0.00 0.00 0.00 66 1013.2
20260507120503 56 81 1.0 4.0 0.00 0.00 0.00 66 1013.3
20260507120004 56 64 1.0 4.0 0.00 0.00 0.00 65 1013.3
20260507115503 57 312 1.0 5.0 0.00 0.00 0.00 62 1013.0
20260507115004 57 271 1.0 5.0 0.00 0.00 0.00 58 1013.3
20260507114717 57 296 1.0 5.0 0.00 0.00 0.00 59 1013.4
20260507114003 57 352 2.0 6.0 0.00 0.00 0.00 56 1013.2
20260507113503 58 16 2.0 6.0 0.00 0.00 0.00 53 1013.1
20260507113004 58 358 1.0 4.0 0.00 0.00 0.00 56 1013.3
20260507112503 58 327 1.0 4.0 0.00 0.00 0.00 57 1013.2
20260507112003 58 260 2.0 6.0 0.00 0.00 0.00 59 1013.0
20260507111504 59 247 2.0 6.0 0.00 0.00 0.00 57 1013.2
20260507111217 60 255 2.0 5.0 0.00 0.00 0.00 53 1013.0
20260507110503 59 326 2.0 5.0 0.00 0.00 0.00 56 1013.3
20260507110003 59 310 2.0 4.0 0.00 0.00 0.00 56 1013.1
20260507105503 59 326 2.0 4.0 0.00 0.00 0.00 54 1013.6
20260507105217 59 334 1.0 4.0 0.00 0.00 0.00 54 1013.4
20260507104504 58 283 1.0 4.0 0.00 0.00 0.00 54 1013.4
20260507104217 58 268 2.0 4.0 0.00 0.00 0.00 55 1013.5
20260507103503 57 251 1.0 4.0 0.00 0.00 0.00 60 1013.4
20260507103003 57 303 1.0 5.0 0.00 0.00 0.00 60 1013.5
20260507102503 56 297 1.0 5.0 0.00 0.00 0.00 64 1013.5
20260507102003 56 264 2.0 4.0 0.00 0.00 0.00 66 1013.6
20260507101503 56 246 2.0 4.0 0.00 0.00 0.00 65 1013.7
20260507101003 56 233 1.0 3.0 0.00 0.00 0.00 62 1013.5
20260507100718 56 239 1.0 3.0 0.00 0.00 0.00 65 1013.6
20260507100003 55 239 1.0 4.0 0.00 0.00 0.00 67 1013.7
20260507095504 54 242 1.0 4.0 0.00 0.00 0.00 68 1013.8
20260507095004 54 262 1.0 4.0 0.00 0.00 0.00 70 1013.9
20260507094503 54 237 1.0 5.0 0.00 0.00 0.00 68 1013.9
20260507094003 53 243 1.0 5.0 0.00 0.00 0.00 70 1013.8
20260507093503 53 286 1.0 3.0 0.00 0.00 0.00 71 1013.9
20260507093003 53 263 1.0 3.0 0.00 0.00 0.00 70 1014.1
20260507092503 53 256 1.0 3.0 0.00 0.00 0.00 69 1014.0
20260507092217 53 264 1.0 3.0 0.00 0.00 0.00 70 1013.9
20260507091503 53 273 1.0 3.0 0.00 0.00 0.00 71 1013.9
20260507091217 52 275 1.0 3.0 0.00 0.00 0.00 72 1014.0
20260507090503 52 304 1.0 2.0 0.00 0.00 0.00 73 1014.0
20260507090004 52 324 0.0 2.0 0.00 0.00 0.00 73 1013.9
20260507085503 52 306 1.0 2.0 0.00 0.00 0.00 72 1013.8
20260507085003 52 298 1.0 2.0 0.00 0.00 0.00 73 1013.9
20260507084503 52 296 1.0 2.0 0.00 0.00 0.00 73 1014.0
20260507084003 52 291 1.0 3.0 0.00 0.00 0.00 73 1013.9
20260507083504 52 275 1.0 3.0 0.00 0.00 0.00 72 1013.9
20260507083003 52 296 0.0 3.0 0.00 0.00 0.00 71 1013.8
20260507082503 52 308 0.0 2.0 0.00 0.00 0.00 75 1013.8
20260507082003 52 310 1.0 2.0 0.00 0.00 0.00 75 1014.0
20260507081717 51 298 1.0 3.0 0.00 0.00 0.00 76 1013.6
20260507081003 51 292 1.0 3.0 0.00 0.00 0.00 75 1013.6
20260507080503 51 326 0.0 1.0 0.00 0.00 0.00 78 1013.8
20260507080004 50 318 0.0 2.0 0.00 0.00 0.00 77 1013.8
20260507075503 50 320 0.0 2.0 0.00 0.00 0.00 77 1013.9
20260507075003 50 322 0.0 2.0 0.00 0.00 0.00 77 1013.9
20260507074717 50 312 1.0 2.0 0.00 0.00 0.00 77 1013.7
20260507074003 50 308 0.0 2.0 0.00 0.00 0.00 78 1013.8
20260507073503 50 318 1.0 2.0 0.00 0.00 0.00 78 1013.7
20260507073004 50 305 1.0 2.0 0.00 0.00 0.00 77 1013.8
20260507072503 50 300 1.0 2.0 0.00 0.00 0.00 77 1013.7
20260507072003 50 317 0.0 2.0 0.00 0.00 0.00 76 1013.7
20260507071504 50 330 1.0 2.0 0.00 0.00 0.00 76 1013.9
20260507071004 50 306 1.0 2.0 0.00 0.00 0.00 76 1013.6
20260507070503 49 292 1.0 2.0 0.00 0.00 0.00 74 1013.5
20260507070005 49 281 1.0 2.0 0.00 0.00 0.00 75 1013.6
20260507065503 49 276 1.0 2.0 0.00 0.00 0.00 75 1013.5
20260507065003 49 320 0.0 3.0 0.00 0.00 0.00 77 1013.4
20260507064503 49 306 1.0 3.0 0.00 0.00 0.00 77 1013.7
20260507064003 49 299 1.0 3.0 0.00 0.00 0.00 75 1013.7
20260507063503 49 307 1.0 3.0 0.00 0.00 0.00 77 1013.5
20260507063003 49 308 1.0 3.0 0.00 0.00 0.00 78 1013.6
20260507062504 49 322 1.0 3.0 0.00 0.00 0.00 77 1013.7
20260507062003 49 339 1.0 2.0 0.00 0.00 0.00 78 1013.6
20260507061503 49 315 1.0 2.0 0.00 0.00 0.00 77 1013.7
20260507061218 49 309 1.0 2.0 0.00 0.00 0.00 77 1013.7
20260507060503 49 317 1.0 3.0 0.00 0.00 0.00 78 1013.6
20260507060003 49 304 1.0 3.0 0.00 0.00 0.00 79 1013.6
20260507055503 49 303 1.0 2.0 0.00 0.00 0.00 79 1013.6
20260507055003 49 304 1.0 2.0 0.00 0.00 0.00 77 1013.7
20260507054503 49 294 1.0 4.0 0.00 0.00 0.00 78 1013.5
20260507054003 48 301 1.0 4.0 0.00 0.00 0.00 78 1013.5
20260507053503 48 307 1.0 3.0 0.00 0.00 0.00 79 1013.5
20260507053003 48 304 1.0 3.0 0.00 0.00 0.00 79 1013.4
20260507052503 48 306 1.0 2.0 0.00 0.00 0.00 79 1013.5
20260507052003 48 306 1.0 2.0 0.00 0.00 0.00 80 1013.4
20260507051503 48 307 1.0 2.0 0.00 0.00 0.00 80 1013.3
20260507051217 48 310 1.0 2.0 0.00 0.00 0.00 80 1013.4
20260507050503 48 306 1.0 2.0 0.00 0.00 0.00 79 1013.4
20260507050004 48 307 1.0 2.0 0.00 0.00 0.00 79 1013.5
20260507045503 49 309 1.0 2.0 0.00 0.00 0.00 79 1013.3
20260507045003 49 311 1.0 2.0 0.00 0.00 0.00 79 1013.5
20260507044503 49 306 1.0 3.0 0.00 0.00 0.00 79 1013.5
20260507044003 49 307 1.0 3.0 0.00 0.00 0.00 78 1013.4
20260507043504 49 316 1.0 3.0 0.00 0.00 0.00 77 1013.3
20260507043217 49 314 1.0 3.0 0.00 0.00 0.00 77 1013.4
20260507042503 49 316 1.0 2.0 0.00 0.00 0.00 78 1013.4
20260507042003 49 318 1.0 3.0 0.00 0.00 0.00 78 1013.4
20260507041718 49 313 1.0 3.0 0.00 0.00 0.00 77 1013.4
20260507041003 49 323 1.0 3.0 0.00 0.00 0.00 78 1013.5
20260507040503 49 323 1.0 3.0 0.00 0.00 0.00 79 1013.3
20260507040003 49 315 1.0 3.0 0.00 0.00 0.00 79 1013.4
20260507035504 49 321 1.0 3.0 0.00 0.00 0.00 78 1013.2
20260507035003 48 320 1.0 2.0 0.00 0.00 0.00 79 1013.4
20260507034503 48 312 1.0 2.0 0.00 0.00 0.00 79 1013.4
20260507034003 48 312 1.0 2.0 0.00 0.00 0.00 79 1013.4
20260507033503 49 311 1.0 3.0 0.00 0.00 0.00 79 1013.4
20260507033219 49 310 1.0 3.0 0.00 0.00 0.00 79 1013.4
20260507032504 49 306 1.0 2.0 0.00 0.00 0.00 79 1013.3
20260507032003 49 304 1.0 2.0 0.00 0.00 0.00 79 1013.6
20260507031503 49 309 1.0 2.0 0.00 0.00 0.00 79 1013.1
20260507031003 49 311 1.0 2.0 0.00 0.00 0.00 79 1013.5
20260507030503 49 311 1.0 2.0 0.00 0.00 0.00 78 1013.3
20260507030003 49 311 1.0 2.0 0.00 0.00 0.00 78 1013.5
20260507025503 49 320 1.0 2.0 0.00 0.00 0.00 77 1013.4
20260507025003 49 342 0.0 2.0 0.00 0.00 0.00 76 1013.2
20260507024503 49 304 1.0 3.0 0.00 0.00 0.00 77 1013.5
20260507024003 49 296 1.0 3.0 0.00 0.00 0.00 76 1013.3
20260507023717 49 310 1.0 2.0 0.00 0.00 0.00 77 1013.5
20260507023004 49 288 1.0 4.0 0.00 0.00 0.00 76 1013.3
20260507022503 49 299 1.0 4.0 0.00 0.00 0.00 75 1013.4
20260507022003 49 322 1.0 2.0 0.00 0.00 0.00 76 1013.3
20260507021503 49 320 1.0 2.0 0.00 0.00 0.00 76 1013.3
20260507021218 49 320 1.0 2.0 0.00 0.00 0.00 76 1013.4
20260507020503 49 315 1.0 2.0 0.00 0.00 0.00 76 1013.3
20260507020218 49 306 1.0 2.0 0.00 0.00 0.00 76 1013.6
20260507015717 49 302 1.0 3.0 0.00 0.00 0.00 76 1013.5
20260507015004 49 310 1.0 3.0 0.00 0.00 0.00 77 1013.4
20260507014717 49 308 1.0 3.0 0.00 0.00 0.00 77 1013.5
20260507014003 48 313 1.0 2.0 0.00 0.00 0.00 81 1013.4
20260507013503 48 313 1.0 2.0 0.00 0.00 0.00 83 1013.4
20260507013003 47 317 0.0 2.0 0.00 0.00 0.00 84 1013.4
20260507012503 47 317 0.0 2.0 0.00 0.00 0.00 84 1013.5
20260507012003 47 318 0.0 1.0 0.00 0.00 0.00 84 1013.4
20260507011503 47 323 0.0 1.0 0.00 0.00 0.00 84 1013.6
20260507011003 47 323 0.0 1.0 0.00 0.00 0.00 84 1013.6
20260507010503 47 320 0.0 1.0 0.00 0.00 0.00 84 1013.6
20260507010003 47 322 0.0 2.0 0.00 0.00 0.00 85 1013.7
20260507005503 47 322 0.0 2.0 0.00 0.00 0.00 85 1013.5
20260507005003 47 314 0.0 2.0 0.00 0.00 0.00 86 1013.6
20260507004503 47 313 0.0 2.0 0.00 0.00 0.00 86 1013.5
20260507004003 47 345 0.0 2.0 0.00 0.00 0.00 86 1013.5
20260507003503 47 333 0.0 2.0 0.00 0.00 0.00 86 1013.7
20260507003003 47 323 0.0 2.0 0.00 0.00 0.00 87 1013.8
20260507002503 47 328 0.0 2.0 0.00 0.00 0.00 87 1013.7
20260507002003 47 321 0.0 1.0 0.00 0.00 0.00 88 1013.9
20260507001503 47 311 0.0 2.0 0.00 0.00 0.00 88 1013.7
20260507001003 47 299 0.0 2.0 0.00 0.00 0.00 88 1013.8
20260507000503 47 290 0.0 2.0 0.00 0.00 0.00 88 1014.1
20260507000003 47 319 0.0 1.0 0.00 0.00 0.00 88 1013.9
20260506235503 47 321 0.0 1.0 0.00 0.00 0.00 88 1014.1
20260506235004 47 321 0.0 1.0 0.00 0.00 0.00 88 1013.9
20260506234718 47 323 0.0 1.0 0.00 0.00 0.00 88 1013.9
20260506234003 47 332 0.0 1.0 0.00 0.00 0.00 88 1013.9
20260506233503 47 298 0.0 1.0 0.00 0.00 0.00 88 1013.7
20260506233217 47 296 0.0 1.0 0.00 0.00 0.00 87 1013.9
20260506232503 47 319 0.0 2.0 0.00 0.00 0.00 87 1013.7
20260506232003 47 335 0.0 2.0 0.00 0.00 0.00 87 1013.9
20260506231503 47 330 0.0 2.0 0.00 0.00 0.00 86 1013.8
20260506231003 47 313 0.0 2.0 0.00 0.00 0.00 86 1013.8
20260506230503 47 304 0.0 2.0 0.00 0.00 0.00 86 1013.9
20260506230217 47 283 0.0 2.0 0.00 0.00 0.00 85 1013.8
20260506225503 47 296 0.0 2.0 0.00 0.00 0.00 86 1013.9
20260506225217 47 336 0.0 1.0 0.00 0.00 0.00 86 1013.8
20260506224504 47 341 0.0 1.0 0.00 0.00 0.00 85 1013.9
20260506224003 47 324 0.0 1.0 0.00 0.00 0.00 85 1013.7
20260506223718 47 308 0.0 1.0 0.00 0.00 0.00 85 1013.6
20260506223003 47 326 0.0 1.0 0.00 0.00 0.00 84 1013.8
20260506222503 47 296 0.0 2.0 0.00 0.00 0.00 84 1013.6
20260506222004 47 285 0.0 2.0 0.00 0.00 0.00 84 1013.7
20260506221504 48 279 0.0 2.0 0.00 0.00 0.00 85 1013.8
20260506221217 48 286 1.0 2.0 0.00 0.00 0.00 85 1013.6
20260506220503 48 311 0.0 1.0 0.00 0.00 0.00 84 1013.8
20260506220004 48 299 0.0 2.0 0.00 0.00 0.00 84 1013.7
20260506215504 48 305 0.0 2.0 0.00 0.00 0.00 84 1013.7
20260506215217 48 318 0.0 1.0 0.00 0.00 0.00 83 1013.8
20260506214503 48 305 0.0 2.0 0.00 0.00 0.00 83 1013.9
20260506214003 48 326 0.0 1.0 0.00 0.00 0.00 82 1013.6
20260506213503 49 297 0.0 1.0 0.00 0.00 0.00 83 1013.7
20260506213004 49 304 0.0 2.0 0.00 0.00 0.00 83 1013.8